| time (UTC) | temp F | wind direction | speed MPH | gust MPH | rain 1hr in | rain 24hr in | rain mn in | humidity % | barometer mb |
| 20260506123035 | 51 | 244 | 0.0 | 0.0 | 0.00 | 0.00 | 0.00 | 25 | 1020.2 |
| 20260506121533 | 51 | 243 | 0.0 | 0.0 | 0.00 | 0.00 | 0.00 | 26 | 1020.1 |
| 20260506120034 | 51 | 244 | 0.0 | 0.0 | 0.00 | 0.00 | 0.00 | 26 | 1020.1 |
| 20260506114531 | 51 | 244 | 0.0 | 0.0 | 0.00 | 0.00 | 0.00 | 27 | 1020.0 |
| 20260506113031 | 51 | 244 | 0.0 | 0.0 | 0.00 | 0.00 | 0.00 | 28 | 1020.0 |
| 20260506111530 | 51 | 244 | 0.0 | 0.0 | 0.00 | 0.00 | 0.00 | 28 | 1019.9 |
| 20260506110028 | 51 | 244 | 0.0 | 0.0 | 0.00 | 0.00 | 0.00 | 29 | 1019.8 |
| 20260506104525 | 51 | 244 | 0.0 | 0.0 | 0.00 | 0.00 | 0.00 | 30 | 1019.6 |
| 20260506103027 | 51 | 244 | 0.0 | 0.0 | 0.00 | 0.00 | 0.00 | 31 | 1019.6 |
| 20260506101525 | 51 | 244 | 0.0 | 0.0 | 0.00 | 0.00 | 0.00 | 32 | 1019.4 |
| 20260506100023 | 51 | 244 | 0.0 | 0.0 | 0.00 | 0.00 | 0.00 | 33 | 1019.3 |
| 20260506094521 | 51 | 244 | 0.0 | 0.0 | 0.00 | 0.00 | 0.00 | 34 | 1019.4 |
| 20260506093034 | 51 | 244 | 0.0 | 0.0 | 0.00 | 0.00 | 0.00 | 35 | 1019.3 |
| 20260506091520 | 51 | 244 | 0.0 | 0.0 | 0.00 | 0.00 | 0.00 | 37 | 1019.4 |
| 20260506090019 | 51 | 244 | 0.0 | 0.0 | 0.00 | 0.00 | 0.00 | 38 | 1019.5 |
| 20260506084518 | 51 | 243 | 0.0 | 0.0 | 0.00 | 0.01 | 0.00 | 39 | 1019.6 |
| 20260506083017 | 51 | 244 | 0.0 | 0.0 | 0.00 | 0.01 | 0.00 | 39 | 1019.6 |
| 20260506081516 | 51 | 244 | 0.0 | 0.0 | 0.00 | 0.01 | 0.00 | 40 | 1019.5 |
| 20260506073012 | 51 | 244 | 0.0 | 0.0 | 0.00 | 0.04 | 0.00 | 42 | 1019.1 |
| 20260506071510 | 51 | 244 | 0.0 | 0.0 | 0.00 | 0.04 | 0.00 | 42 | 1019.0 |
| 20260506061507 | 52 | 253 | 0.0 | 0.0 | 0.00 | 0.12 | 0.04 | 45 | 1018.6 |
| 20260506044608 | 52 | 182 | 0.0 | 0.0 | 0.00 | 0.18 | 0.04 | 46 | 1017.9 |
| 20260506043056 | 52 | 182 | 0.0 | 0.0 | 0.00 | 0.18 | 0.04 | 48 | 1017.8 |
| 20260506041606 | 52 | 175 | 0.0 | 0.0 | 0.00 | 0.18 | 0.04 | 48 | 1017.5 |
| 20260506040055 | 52 | 205 | 0.0 | 0.0 | 0.00 | 0.18 | 0.04 | 49 | 1017.2 |
| 20260506034549 | 52 | 190 | 0.0 | 0.0 | 0.00 | 0.22 | 0.04 | 51 | 1017.0 |
| 20260506033052 | 52 | 252 | 0.0 | 0.0 | 0.00 | 0.22 | 0.04 | 53 | 1016.9 |
| 20260506031548 | 53 | 192 | 0.0 | 0.0 | 0.00 | 0.22 | 0.04 | 52 | 1016.6 |
| 20260506030047 | 53 | 207 | 0.0 | 0.0 | 0.00 | 0.22 | 0.04 | 53 | 1016.4 |
| 20260506024546 | 53 | 232 | 0.0 | 0.0 | 0.00 | 0.31 | 0.04 | 55 | 1016.1 |
| 20260506023053 | 54 | 290 | 0.0 | 0.0 | 0.00 | 0.31 | 0.04 | 55 | 1016.1 |
| 20260506021546 | 54 | 162 | 0.0 | 0.0 | 0.00 | 0.31 | 0.04 | 56 | 1016.0 |
| 20260506020114 | 55 | 192 | 0.0 | 0.0 | 0.00 | 0.31 | 0.04 | 56 | 1015.8 |
| 20260506014544 | 55 | 198 | 0.0 | 0.0 | 0.00 | 0.39 | 0.04 | 59 | 1015.8 |
| 20260506013043 | 55 | 194 | 0.0 | 0.0 | 0.00 | 0.39 | 0.04 | 59 | 1015.6 |
| 20260506011547 | 56 | 207 | 0.0 | 0.0 | 0.00 | 0.39 | 0.04 | 62 | 1015.6 |
| 20260506010041 | 56 | 205 | 0.0 | 0.0 | 0.00 | 0.39 | 0.04 | 62 | 1015.5 |
| 20260506004544 | 57 | 257 | 0.0 | 0.0 | 0.00 | 0.44 | 0.04 | 65 | 1015.6 |
| 20260506003040 | 57 | 200 | 0.0 | 0.0 | 0.00 | 0.44 | 0.04 | 66 | 1015.6 |
| 20260506001547 | 57 | 259 | 0.0 | 0.0 | 0.00 | 0.44 | 0.04 | 68 | 1015.5 |
| 20260506000054 | 58 | 205 | 0.0 | 0.0 | 0.00 | 0.44 | 0.04 | 67 | 1015.5 |
| 20260505234542 | 59 | 236 | 0.0 | 0.0 | 0.00 | 0.47 | 0.04 | 67 | 1015.4 |
| 20260505233040 | 59 | 201 | 0.0 | 0.0 | 0.00 | 0.47 | 0.04 | 68 | 1015.5 |
| 20260505231538 | 59 | 263 | 0.0 | 0.0 | 0.00 | 0.47 | 0.04 | 69 | 1015.6 |
| 20260505230044 | 59 | 238 | 0.0 | 0.0 | 0.00 | 0.47 | 0.04 | 65 | 1015.6 |
| 20260505224544 | 59 | 244 | 0.0 | 0.0 | 0.00 | 0.53 | 0.04 | 68 | 1015.7 |
| 20260505223039 | 59 | 244 | 0.0 | 0.0 | 0.00 | 0.53 | 0.04 | 69 | 1015.8 |
| 20260505221544 | 61 | 193 | 0.0 | 0.0 | 0.00 | 0.53 | 0.04 | 65 | 1016.0 |
| 20260505220030 | 59 | 246 | 0.0 | 0.0 | 0.00 | 0.53 | 0.04 | 59 | 1016.1 |
| 20260505214528 | 58 | 188 | 0.0 | 0.0 | 0.00 | 0.55 | 0.04 | 53 | 1016.3 |
| 20260505213028 | 58 | 213 | 0.0 | 0.0 | 0.00 | 0.55 | 0.04 | 52 | 1016.5 |
| 20260505211530 | 58 | 200 | 0.0 | 0.0 | 0.00 | 0.55 | 0.04 | 44 | 1016.6 |
| 20260505210019 | 57 | 258 | 0.0 | 0.0 | 0.00 | 0.55 | 0.04 | 17 | 1016.6 |
| 20260505204517 | 56 | 244 | 0.0 | 0.0 | 0.00 | 0.55 | 0.04 | 17 | 1016.7 |
| 20260505203017 | 56 | 269 | 0.0 | 0.0 | 0.00 | 0.55 | 0.04 | 22 | 1016.6 |
| 20260505201512 | 55 | 182 | 0.0 | 0.0 | 0.00 | 0.55 | 0.04 | 25 | 1016.7 |
| 20260505200012 | 55 | 167 | 0.0 | 0.0 | 0.00 | 0.55 | 0.04 | 26 | 1016.7 |
| 20260505194510 | 55 | 190 | 0.0 | 0.0 | 0.00 | 0.55 | 0.04 | 26 | 1016.7 |
| 20260505193010 | 54 | 242 | 0.0 | 0.0 | 0.00 | 0.55 | 0.04 | 27 | 1016.8 |
| 20260505191512 | 55 | 85 | 0.0 | 0.0 | 0.00 | 0.55 | 0.04 | 27 | 1016.7 |
| 20260505190005 | 54 | 85 | 0.0 | 0.0 | 0.00 | 0.55 | 0.04 | 28 | 1016.6 |
| 20260505184503 | 53 | 85 | 0.0 | 0.0 | 0.00 | 0.55 | 0.04 | 28 | 1016.6 |
| 20260505183002 | 53 | 117 | 0.0 | 0.0 | 0.00 | 0.55 | 0.04 | 28 | 1016.6 |
| 20260505181641 | 53 | 117 | 0.0 | 0.0 | 0.00 | 0.55 | 0.04 | 28 | 1016.6 |
| 20260505180105 | 52 | 121 | 0.0 | 0.0 | 0.00 | 0.55 | 0.04 | 29 | 1016.5 |
| 20260505174554 | 51 | 216 | 0.0 | 0.0 | 0.00 | 0.55 | 0.04 | 30 | 1016.5 |
| 20260505173053 | 51 | 216 | 0.0 | 0.0 | 0.00 | 0.55 | 0.04 | 29 | 1016.3 |
| 20260505171558 | 50 | 216 | 0.0 | 0.0 | 0.00 | 0.55 | 0.04 | 30 | 1016.1 |
| 20260505170048 | 49 | 216 | 0.0 | 0.0 | 0.00 | 0.55 | 0.04 | 31 | 1016.2 |
| 20260505164548 | 49 | 216 | 0.0 | 0.0 | 0.00 | 0.55 | 0.04 | 30 | 1016.2 |
| 20260505163047 | 49 | 216 | 0.0 | 0.0 | 0.00 | 0.55 | 0.04 | 31 | 1016.1 |
| 20260505161547 | 49 | 216 | 0.0 | 0.0 | 0.00 | 0.55 | 0.04 | 30 | 1015.9 |
| 20260505153046 | 48 | 234 | 0.0 | 0.0 | 0.00 | 0.55 | 0.04 | 31 | 1015.5 |
| 20260505151537 | 48 | 234 | 0.0 | 0.0 | 0.00 | 0.55 | 0.04 | 31 | 1015.4 |
| 20260505124531 | 47 | 203 | 0.0 | 0.0 | 0.00 | 0.55 | 0.04 | 31 | 1014.6 |